Weather History for KLOZ - January, 2014

Change the Weather History Date:

Friday, January 3, 2014

  Actual Average Record
Temperature  
Mean Temperature 16 °F 36 °F  
Max Temperature 23 °F 45 °F 70 °F (2000)
Min Temperature 9 °F 27 °F 1 °F (2001)
Degree Days  
Heating Degree Days 49 29  
Month to date heating degree days 113 87  
Since 1 July heating degree days 1720 1739  
Cooling Degree Days 0 0  
Month to date cooling degree days 0 0  
Year to date cooling degree days 0 0  
Moisture  
Dew Point 7 °F    
Average Humidity 60    
Maximum Humidity 74    
Minimum Humidity 45    
Precipitation  
Precipitation T in 0.11 in 1.84 in (1982)
Month to date precipitation 0.15 0.34  
Year to date precipitation 0.15 0.34  
Sea Level Pressure  
Sea Level Pressure 30.39 in    
Wind  
Wind Speed 5 mph (NNW)    
Max Wind Speed 18 mph    
Max Gust Speed 28 mph    
Visibility 9 miles    
Events Snow    
T = Trace of Precipitation, MM = Missing Value Source: NWS Daily Summary

Daily Weather History Graph

Daily Weather History Graph

Search for Another Location

Airport or City:

Trip Planner

Search our weather history database for the weather conditions in past years. The results will help you decide how hot, cold, wet, or windy it might be!

Date:

Astronomy

Jan. 03, 2014 Rise Set
Actual Time 7:50 AM EST 5:31 PM EST
Civil Twilight 7:21 AM EST 6:00 PM EST
Nautical Twilight 6:48 AM EST 6:33 PM EST
Astronomical Twilight 6:17 AM EST 7:04 PM EST
Moon 9:19 AM EST (1/3) 8:35 PM EST (1/3)
Length of Visible Light 10h 39m
Length of Day
9h 41m
Waxing Crescent, 8% of the Moon is Illuminated
Jan 3
Waxing Crescent
Jan 7
First Quarter
Jan 15
Full
Jan 24
Last Quarter
Jan 30
New

Hourly Weather History & Observations

Time (EST) Temp. Windchill Dew Point Humidity Pressure Visibility Wind Dir Wind Speed Gust Speed Precip Events Conditions
12:53 AM 15.1 °F 2.5 °F 7.0 °F 70% 30.27 in 4.0 mi NNW 10.4 mph 18.4 mph 0.00 in Snow Light Snow
1:53 AM 15.1 °F 1.8 °F 7.0 °F 70% 30.30 in 8.0 mi NNW 11.5 mph - 0.00 in Snow Light Snow
2:21 AM 15.1 °F 5.2 °F 8.1 °F 74% 30.27 in 2.5 mi NNW 6.9 mph - 0.00 in Snow Light Snow
2:34 AM 15.1 °F 5.2 °F 8.1 °F 74% 30.28 in 4.0 mi NNW 6.9 mph - 0.00 in Snow Light Snow
2:53 AM 15.1 °F 3.3 °F 7.0 °F 70% 30.33 in 6.0 mi NNW 9.2 mph - 0.00 in Snow Light Snow
3:32 AM 15.1 °F 4.2 °F 9.0 °F 77% 30.31 in 2.0 mi NNW 8.1 mph - 0.00 in Snow Light Snow
3:45 AM 15.1 °F 2.5 °F 7.0 °F 70% 30.31 in 4.0 mi NNW 10.4 mph - 0.00 in Snow Light Snow
3:53 AM 14.0 °F 1.2 °F 7.0 °F 74% 30.36 in 8.0 mi NNW 10.4 mph - 0.00 in   Overcast
4:53 AM 12.9 °F 1.6 °F 6.1 °F 74% 30.37 in 7.0 mi NNW 8.1 mph - 0.00 in Snow Light Snow
5:48 AM 12.2 °F 4.3 °F 3.2 °F 67% 30.34 in 10.0 mi NW 4.6 mph - 0.00 in   Scattered Clouds
5:53 AM 10.9 °F 2.9 °F 3.9 °F 73% 30.40 in 10.0 mi NW 4.6 mph - 0.00 in   Scattered Clouds
6:01 AM 10.9 °F 1.4 °F 3.9 °F 73% 30.35 in 10.0 mi NW 5.8 mph - N/A   Mostly Cloudy
6:39 AM 10.9 °F 0.2 °F 3.9 °F 73% 30.37 in 10.0 mi NW 6.9 mph - N/A   Scattered Clouds
6:53 AM 10.9 °F 0.2 °F 3.9 °F 73% 30.43 in 10.0 mi NNW 6.9 mph - N/A   Partly Cloudy
7:53 AM 10.0 °F 0.4 °F 3.9 °F 76% 30.46 in 10.0 mi North 5.8 mph - N/A   Clear
8:53 AM 10.9 °F -0.8 °F 3.9 °F 73% 30.47 in 10.0 mi North 8.1 mph - N/A   Partly Cloudy
9:53 AM 12.9 °F 5.2 °F 5.0 °F 71% 30.49 in 10.0 mi North 4.6 mph - N/A   Partly Cloudy
10:53 AM 15.1 °F 7.7 °F 6.1 °F 68% 30.51 in 10.0 mi North 4.6 mph - N/A   Clear
11:53 AM 16.0 °F 8.8 °F 6.1 °F 65% 30.51 in 10.0 mi Variable 4.6 mph - N/A   Partly Cloudy
12:53 PM 19.9 °F 11.1 °F 6.1 °F 55% 30.48 in 10.0 mi NNE 6.9 mph - N/A   Clear
1:53 PM 19.0 °F - 6.1 °F 57% 30.48 in 10.0 mi Calm Calm - N/A   Clear
2:53 PM 23.0 °F 18.4 °F 5.0 °F 46% 30.45 in 10.0 mi Variable 3.5 mph - N/A   Clear
3:53 PM 21.9 °F 14.5 °F 6.1 °F 51% 30.45 in 10.0 mi SSE 5.8 mph - N/A   Clear
4:53 PM 21.9 °F 17.2 °F 6.1 °F 51% 30.43 in 10.0 mi SE 3.5 mph - N/A   Clear
5:53 PM 21.0 °F - 6.1 °F 53% 30.43 in 10.0 mi Calm Calm - N/A   Clear
6:53 PM 19.9 °F - 9.0 °F 62% 30.43 in 10.0 mi Calm Calm - N/A   Clear
7:53 PM 19.0 °F - 10.9 °F 71% 30.43 in 10.0 mi Calm Calm - N/A   Clear
8:53 PM 17.1 °F - 10.9 °F 77% 30.41 in 10.0 mi Calm Calm - N/A   Clear
9:53 PM 17.1 °F - 10.9 °F 77% 30.37 in 10.0 mi Calm Calm - N/A   Clear
10:53 PM 17.1 °F 11.7 °F 9.0 °F 71% 30.35 in 10.0 mi SE 3.5 mph - N/A   Clear
11:53 PM 17.1 °F - 9.0 °F 71% 30.33 in 10.0 mi Calm Calm - N/A   Clear